Location: Berlin
(52.5170°N, 13.4000°E)
Time: 15:59:44
(UTC+02:00)

ISS - Pass Details

Date: 21 July 2018
Orbit: 402 x 408 km, 51.6° (Epoch: 23 July)

Event Time Altitude Azimuth Distance (km) Brightness Sun altitude
Rises 01:21:48 0° 270° (W) 2,327 0.0 -16.9°
Reaches altitude 10° 01:23:53 10° 269° (W) 1,468 -1.0 -16.9°
Maximum altitude 01:27:10 77° 183° (S) 422 -4.0 -16.9°
Drops below altitude 10° 01:30:28 10° 97° (E) 1,471 -1.0 -16.9°
Sets 01:32:33 0° 96° (E) 2,332 0.0 -16.8°
